カタログに戻る

COSMOS 504

運用中軍事LEO
NORAD 6117·PAYLOAD·🇷🇺 Russia

打ち上げ Jul 20, 1972 から Plesetsk Cosmodrome

Loading…

次のパス (今後24時間)

TLE

最新Source: Space-Track

元期: Sep 14, 2026, 11:50 UTC

1 06117U 72057A   26257.49349744 -.00000022  00000-0 -26051-4 0  9996
2 06117  74.0241 261.8187 0112117 208.8314 225.8319 12.63627421497887

AllMySatでCOSMOS 504をリアルタイム追跡

Download on the App Store